STARLINK-1141 (45051 NORAD) Tracking and Keplerian Element Data

This shows tracking and keplerian element data for the satellite.

Feedback or suggestion? Click here.




ElementValue
Catalog45051
NameSTARLINK-1141
Epoch Orbit401
Epoch Day52.91667824
Epoch Year2020
RAAN121.0837
Inclination52.9971
Eccentricity0.0001331
Argument of Perigee67.8086
Mean Anonmoly348.3677
Mean Motion15.48328519
Decay Rate0.00065825
L11 45051U 20006H 20052.91667824 .00065825 00000-0 12227-2 0 9997
L22 45051 52.9971 121.0837 0001331 67.8086 348.3677 15.48328519 4014

Live tracking and technical data element details for STARLINK-1141 (NORAD 45051). STARLINK-1141 can be tracked NOW for your location showing map with azimuth and elevation plus other details from your city location.

Track the satellite on the map from your city or location and see movement details for azimuth, elevation, latitude, longitude, range, height, and movement on the map or in text.







IsCatalogInMostPopularTable: catalog: 45051, numindb: 7
Update: records affected: 1



GetName: 45051 STARLINK-1141

Hit Count: updated at: Wed, 26 Feb 2020 15:22:17 GMT